Time,TemperatureF,DewpointF,PressureIn,WindDirection,WindDirectionDegrees,WindSpeedMPH,WindSpeedGustMPH,Humidity,HourlyPrecipIn,Conditions,Clouds,dailyrainin,SolarRadiationWatts/m^2,SoftwareType,DateUTC
2013-11-01 00:00:00,67.2,66.0,29.82,SE,128,0.0,0.0,97,0.00,,,0.79,0,weatherlink.com 1.10,2013-11-01 04:00:00,
2013-11-01 00:15:00,67.4,67.0,29.83,West,272,0.0,2.0,97,0.00,,,0.79,0,weatherlink.com 1.10,2013-11-01 04:15:00,
2013-11-01 00:30:00,67.5,67.0,29.83,West,272,0.0,1.0,97,0.00,,,0.79,0,weatherlink.com 1.10,2013-11-01 04:30:00,
2013-11-01 00:45:00,67.5,67.0,29.83,West,272,1.0,1.0,97,0.00,,,0.79,0,weatherlink.com 1.10,2013-11-01 04:45:00,
2013-11-01 01:00:00,67.5,67.0,29.84,West,272,0.0,2.0,97,0.00,,,0.00,0,weatherlink.com 1.10,2013-11-01 05:00:00,
2013-11-01 01:15:00,67.4,67.0,29.84,West,272,0.0,3.0,97,0.01,,,0.01,0,weatherlink.com 1.10,2013-11-01 05:15:00,
2013-11-01 01:30:00,67.4,67.0,29.84,West,272,0.0,2.0,97,0.01,,,0.01,0,weatherlink.com 1.10,2013-11-01 05:30:00,
2013-11-01 01:45:00,67.4,67.0,29.83,West,272,0.0,1.0,97,0.01,,,0.01,0,weatherlink.com 1.10,2013-11-01 05:45:00,
2013-11-01 02:00:00,67.4,67.0,29.83,West,265,0.0,3.0,97,0.01,,,0.01,0,weatherlink.com 1.10,2013-11-01 06:00:00,
2013-11-01 02:15:00,67.4,67.0,29.83,West,265,0.0,2.0,97,0.00,,,0.01,0,weatherlink.com 1.10,2013-11-01 06:15:00,
2013-11-01 02:30:00,67.3,67.0,29.83,West,277,0.0,2.0,97,0.00,,,0.01,0,weatherlink.com 1.10,2013-11-01 06:30:00,
2013-11-01 02:45:00,67.3,67.0,29.84,West,277,0.0,2.0,97,0.00,,,0.01,0,weatherlink.com 1.10,2013-11-01 06:45:00,
2013-11-01 03:00:00,67.1,66.0,29.84,WNW,288,0.0,3.0,97,0.00,,,0.01,0,weatherlink.com 1.10,2013-11-01 07:00:00,
2013-11-01 03:15:00,66.7,66.0,29.84,NW,312,0.0,3.0,97,0.00,,,0.01,0,weatherlink.com 1.10,2013-11-01 07:15:00,
2013-11-01 03:45:00,65.1,64.0,29.84,NNE,18,2.0,4.0,97,0.00,,,0.01,0,weatherlink.com 1.10,2013-11-01 07:45:00,
2013-11-01 04:00:00,64.2,63.0,29.83,WNW,300,5.0,7.0,97,0.00,,,0.01,0,weatherlink.com 1.10,2013-11-01 08:00:00,
2013-11-01 04:15:00,63.6,63.0,29.84,NW,319,0.0,5.0,97,0.00,,,0.01,0,weatherlink.com 1.10,2013-11-01 08:15:00,
2013-11-01 04:30:00,63.3,63.0,29.84,NW,304,0.0,4.0,97,0.00,,,0.01,0,weatherlink.com 1.10,2013-11-01 08:30:00,
2013-11-01 04:45:00,63.0,62.0,29.83,NW,307,0.0,1.0,97,0.00,,,0.01,0,weatherlink.com 1.10,2013-11-01 08:45:00,
2013-11-01 05:00:00,63.0,62.0,29.84,NW,304,0.0,3.0,97,0.00,,,0.01,0,weatherlink.com 1.10,2013-11-01 09:00:00,
2013-11-01 05:15:00,63.0,62.0,29.84,NW,304,0.0,1.0,97,0.00,,,0.01,0,weatherlink.com 1.10,2013-11-01 09:15:00,
2013-11-01 05:30:00,62.9,62.0,29.84,NW,304,0.0,3.0,97,0.00,,,0.01,0,weatherlink.com 1.10,2013-11-01 09:30:00,
2013-11-01 05:45:00,62.9,62.0,29.84,NW,304,0.0,1.0,97,0.00,,,0.01,0,weatherlink.com 1.10,2013-11-01 09:45:00,
2013-11-01 06:00:00,62.7,62.0,29.84,NW,304,0.0,1.0,97,0.00,,,0.01,0,weatherlink.com 1.10,2013-11-01 10:00:00,
2013-11-01 06:15:00,62.3,62.0,29.85,NW,304,0.0,1.0,97,0.00,,,0.01,0,weatherlink.com 1.10,2013-11-01 10:15:00,
2013-11-01 06:30:00,62.0,61.0,29.86,NW,304,0.0,1.0,97,0.00,,,0.01,0,weatherlink.com 1.10,2013-11-01 10:30:00,
2013-11-01 06:45:00,61.6,61.0,29.85,NW,304,0.0,2.0,97,0.00,,,0.01,0,weatherlink.com 1.10,2013-11-01 10:45:00,
2013-11-01 07:00:00,61.3,61.0,29.85,NW,312,0.0,2.0,97,0.00,,,0.01,0,weatherlink.com 1.10,2013-11-01 11:00:00,
2013-11-01 07:15:00,61.0,60.0,29.86,NW,312,0.0,1.0,97,0.00,,,0.01,0,weatherlink.com 1.10,2013-11-01 11:15:00,
2013-11-01 07:30:00,60.7,60.0,29.85,NW,312,0.0,2.0,97,0.00,,,0.01,0,weatherlink.com 1.10,2013-11-01 11:30:00,
2013-11-01 07:45:00,60.4,60.0,29.85,NW,312,0.0,0.0,97,0.00,,,0.01,0,weatherlink.com 1.10,2013-11-01 11:45:00,
2013-11-01 08:00:00,60.0,59.0,29.85,NW,312,0.0,1.0,97,0.00,,,0.01,0,weatherlink.com 1.10,2013-11-01 12:00:00,
2013-11-01 08:15:00,59.7,59.0,29.86,NW,312,0.0,0.0,97,0.00,,,0.01,0,weatherlink.com 1.10,2013-11-01 12:15:00,
2013-11-01 08:30:00,59.6,59.0,29.86,NW,312,0.0,0.0,97,0.00,,,0.01,5,weatherlink.com 1.10,2013-11-01 12:30:00,
2013-11-01 08:45:00,59.5,59.0,29.87,NW,312,1.0,2.0,97,0.00,,,0.01,16,weatherlink.com 1.10,2013-11-01 12:45:00,
2013-11-01 09:00:00,59.4,59.0,29.88,NW,312,1.0,1.0,97,0.00,,,0.01,37,weatherlink.com 1.10,2013-11-01 13:00:00,
2013-11-01 09:16:00,59.6,59.0,29.88,NW,312,0.0,1.0,98,0.00,,,0.01,44,weatherlink.com 1.10,2013-11-01 13:16:00,
2013-11-01 09:31:00,60.4,60.0,29.88,NNE,14,0.0,4.0,98,0.00,,,0.01,76,weatherlink.com 1.10,2013-11-01 13:31:00,
2013-11-01 09:46:00,60.8,60.0,29.88,NNE,14,0.0,1.0,98,0.00,,,0.01,169,weatherlink.com 1.10,2013-11-01 13:46:00,
2013-11-01 10:01:00,61.3,61.0,29.88,WNW,282,0.0,2.0,97,0.00,,,0.01,72,weatherlink.com 1.10,2013-11-01 14:01:00,
2013-11-01 10:16:00,61.2,60.0,29.89,NW,313,0.0,2.0,97,0.00,,,0.01,137,weatherlink.com 1.10,2013-11-01 14:16:00,
2013-11-01 10:31:00,62.6,62.0,29.89,NW,305,2.0,3.0,96,0.00,,,0.01,508,weatherlink.com 1.10,2013-11-01 14:31:00,
2013-11-01 10:46:00,63.9,62.0,29.89,NW,305,0.0,3.0,93,0.00,,,0.01,468,weatherlink.com 1.10,2013-11-01 14:46:00,
2013-11-01 11:01:00,64.9,62.0,29.89,NW,305,0.0,2.0,89,0.00,,,0.01,513,weatherlink.com 1.10,2013-11-01 15:01:00,
2013-11-01 11:16:00,65.3,61.0,29.89,NW,321,0.0,2.0,87,0.00,,,0.01,545,weatherlink.com 1.10,2013-11-01 15:16:00,
2013-11-01 11:31:00,66.0,61.0,29.89,NW,318,0.0,3.0,85,0.00,,,0.01,585,weatherlink.com 1.10,2013-11-01 15:31:00,
2013-11-01 11:46:00,67.7,62.0,29.89,NW,325,0.0,2.0,82,0.00,,,0.01,621,weatherlink.com 1.10,2013-11-01 15:46:00,
2013-11-01 12:01:00,67.9,62.0,29.89,NW,326,0.0,2.0,82,0.00,,,0.01,656,weatherlink.com 1.10,2013-11-01 16:01:00,
2013-11-01 12:16:00,68.2,61.0,29.89,NNW,331,0.0,3.0,78,0.00,,,0.01,684,weatherlink.com 1.10,2013-11-01 16:16:00,
2013-11-01 12:31:00,69.2,63.0,29.89,WNW,296,2.0,4.0,81,0.00,,,0.01,701,weatherlink.com 1.10,2013-11-01 16:31:00,
2013-11-01 12:46:00,68.9,62.0,29.89,NNE,24,0.0,4.0,79,0.00,,,0.01,724,weatherlink.com 1.10,2013-11-01 16:46:00,
2013-11-01 13:01:00,70.3,63.0,29.89,SW,222,4.0,4.0,77,0.00,,,0.01,729,weatherlink.com 1.10,2013-11-01 17:01:00,
2013-11-01 13:16:00,71.2,61.0,29.89,WSW,245,3.0,6.0,70,0.00,,,0.01,744,weatherlink.com 1.10,2013-11-01 17:16:00,
2013-11-01 13:46:00,72.0,63.0,29.87,NW,311,1.0,6.0,73,0.00,,,0.01,751,weatherlink.com 1.10,2013-11-01 17:46:00,
2013-11-01 14:01:00,72.4,62.0,29.87,SSW,205,1.0,5.0,70,0.00,,,0.01,752,weatherlink.com 1.10,2013-11-01 18:01:00,
2013-11-01 14:16:00,73.5,62.0,29.85,SW,227,3.0,7.0,67,0.00,,,0.01,740,weatherlink.com 1.10,2013-11-01 18:16:00,
2013-11-01 14:31:00,73.8,63.0,29.85,WNW,294,0.0,5.0,70,0.00,,,0.01,729,weatherlink.com 1.10,2013-11-01 18:31:00,
2013-11-01 14:46:00,73.9,62.0,29.84,NNW,328,3.0,5.0,66,0.00,,,0.01,714,weatherlink.com 1.10,2013-11-01 18:46:00,
2013-11-01 15:01:00,74.4,61.0,29.83,NW,304,3.0,6.0,63,0.00,,,0.01,707,weatherlink.com 1.10,2013-11-01 19:01:00,
2013-11-01 15:16:00,74.3,59.0,29.83,West,275,0.0,9.0,59,0.00,,,0.01,687,weatherlink.com 1.10,2013-11-01 19:16:00,
2013-11-01 15:31:00,74.6,59.0,29.82,West,263,1.0,9.0,58,0.00,,,0.01,652,weatherlink.com 1.10,2013-11-01 19:31:00,
2013-11-01 15:46:00,74.8,59.0,29.82,NW,326,1.0,6.0,58,0.00,,,0.01,622,weatherlink.com 1.10,2013-11-01 19:46:00,
2013-11-01 16:01:00,74.8,60.0,29.81,NNW,340,1.0,5.0,61,0.00,,,0.01,587,weatherlink.com 1.10,2013-11-01 20:01:00,
2013-11-01 16:17:00,74.6,60.0,29.81,WSW,256,1.0,6.0,60,0.00,,,0.01,552,weatherlink.com 1.10,2013-11-01 20:17:00,
2013-11-01 16:32:00,74.8,60.0,29.81,NW,313,0.0,10.0,61,0.00,,,0.01,506,weatherlink.com 1.10,2013-11-01 20:32:00,
2013-11-01 16:47:00,75.1,62.0,29.81,North,355,0.0,6.0,63,0.00,,,0.01,462,weatherlink.com 1.10,2013-11-01 20:47:00,
2013-11-01 17:02:00,75.1,59.0,29.81,WSW,253,3.0,6.0,58,0.00,,,0.01,417,weatherlink.com 1.10,2013-11-01 21:02:00,
2013-11-01 17:17:00,74.6,58.0,29.81,NNW,329,8.0,9.0,56,0.00,,,0.01,366,weatherlink.com 1.10,2013-11-01 21:17:00,
2013-11-01 17:32:00,74.2,57.0,29.82,NNW,340,2.0,9.0,55,0.00,,,0.01,318,weatherlink.com 1.10,2013-11-01 21:32:00,
2013-11-01 17:47:00,73.5,56.0,29.82,SSW,196,5.0,10.0,54,0.00,,,0.01,262,weatherlink.com 1.10,2013-11-01 21:47:00,
2013-11-01 18:02:00,73.3,57.0,29.82,NNW,327,3.0,8.0,57,0.00,,,0.01,202,weatherlink.com 1.10,2013-11-01 22:02:00,
2013-11-01 18:17:00,72.5,56.0,29.82,WNW,300,0.0,8.0,57,0.00,,,0.01,127,weatherlink.com 1.10,2013-11-01 22:17:00,
2013-11-01 18:32:00,71.3,57.0,29.82,WNW,287,1.0,3.0,62,0.00,,,0.01,26,weatherlink.com 1.10,2013-11-01 22:32:00,
2013-11-01 18:47:00,70.3,58.0,29.82,WNW,291,0.0,4.0,66,0.00,,,0.01,21,weatherlink.com 1.10,2013-11-01 22:47:00,
2013-11-01 19:02:00,68.9,58.0,29.83,NW,309,0.0,0.0,69,0.00,,,0.01,14,weatherlink.com 1.10,2013-11-01 23:02:00,
2013-11-01 19:17:00,67.1,58.0,29.83,NW,309,0.0,0.0,73,0.00,,,0.01,5,weatherlink.com 1.10,2013-11-01 23:17:00,
2013-11-01 19:32:00,64.9,58.0,29.84,NW,309,0.0,0.0,78,0.00,,,0.01,0,weatherlink.com 1.10,2013-11-01 23:32:00,
2013-11-01 19:47:00,63.0,58.0,29.84,NW,309,0.0,0.0,84,0.00,,,0.01,0,weatherlink.com 1.10,2013-11-01 23:47:00,
2013-11-01 20:02:00,61.6,57.0,29.84,NW,309,0.0,0.0,86,0.00,,,0.01,0,weatherlink.com 1.10,2013-11-02 00:02:00,
2013-11-01 20:17:00,60.7,57.0,29.85,NW,309,0.0,0.0,86,0.00,,,0.01,0,weatherlink.com 1.10,2013-11-02 00:17:00,
2013-11-01 20:32:00,60.1,55.0,29.86,NW,309,0.0,0.0,84,0.00,,,0.01,0,weatherlink.com 1.10,2013-11-02 00:32:00,
2013-11-01 20:47:00,59.9,55.0,29.87,NW,309,0.0,0.0,83,0.00,,,0.01,0,weatherlink.com 1.10,2013-11-02 00:47:00,
2013-11-01 21:02:00,59.0,55.0,29.88,NW,309,0.0,0.0,87,0.00,,,0.01,0,weatherlink.com 1.10,2013-11-02 01:02:00,
2013-11-01 21:17:00,58.5,55.0,29.88,NW,309,0.0,0.0,88,0.00,,,0.01,0,weatherlink.com 1.10,2013-11-02 01:17:00,
2013-11-01 21:32:00,57.8,55.0,29.88,NW,309,0.0,0.0,90,0.00,,,0.01,0,weatherlink.com 1.10,2013-11-02 01:32:00,
2013-11-01 21:47:00,56.9,55.0,29.89,NW,309,0.0,0.0,92,0.00,,,0.01,0,weatherlink.com 1.10,2013-11-02 01:47:00,
2013-11-01 22:02:00,56.4,55.0,29.90,NW,309,0.0,0.0,93,0.00,,,0.01,0,weatherlink.com 1.10,2013-11-02 02:02:00,
2013-11-01 22:17:00,56.2,55.0,29.91,NW,309,0.0,0.0,94,0.00,,,0.01,0,weatherlink.com 1.10,2013-11-02 02:17:00,
2013-11-01 22:32:00,55.8,54.0,29.91,NW,309,0.0,0.0,94,0.00,,,0.01,0,weatherlink.com 1.10,2013-11-02 02:32:00,
2013-11-01 22:47:00,55.9,55.0,29.91,NW,309,0.0,0.0,95,0.00,,,0.01,0,weatherlink.com 1.10,2013-11-02 02:47:00,
2013-11-01 23:02:00,55.3,54.0,29.92,NW,309,0.0,0.0,95,0.00,,,0.01,0,weatherlink.com 1.10,2013-11-02 03:02:00,
2013-11-01 23:17:00,55.1,54.0,29.92,NW,309,0.0,0.0,96,0.00,,,0.01,0,weatherlink.com 1.10,2013-11-02 03:17:00,
2013-11-01 23:32:00,55.0,54.0,29.92,NW,309,0.0,0.0,96,0.00,,,0.01,0,weatherlink.com 1.10,2013-11-02 03:32:00,
2013-11-01 23:47:00,54.4,53.0,29.93,NW,309,0.0,0.0,96,0.00,,,0.01,0,weatherlink.com 1.10,2013-11-02 03:47:00,